KB9ZI Weather Reports


time (UTC)temp
C
wind
direction
speed
KPH
gust
KPH
rain 1hr
cm
rain 24hr
cm
rain mn
cm
humidity
%
barometer
mb
20260902113358 18 25 0.0 3.2 0.20 0.48 0.48 96 1012.9
20260902113353 18 27 0.0 4.8 0.36 0.48 0.48 96 1012.9
20260902113054 18 27 0.0 4.8 0.36 0.48 0.48 96 1012.9
20260902112952 18 27 0.0 4.8 0.36 0.48 0.48 96 1012.8
20260902112745 18 27 0.0 6.4 0.36 0.48 0.48 96 1012.8
20260902112554 18 25 0.0 6.4 0.36 0.48 0.48 96 1012.7
20260902112547 18 27 0.0 6.4 0.36 0.48 0.48 96 1012.7
20260902112349 18 86 0.0 6.4 0.36 0.48 0.48 96 1012.8
20260902112141 18 48 0.0 6.4 0.36 0.48 0.48 96 1012.8
20260902112051 18 49 0.0 6.4 0.36 0.48 0.48 96 1012.8
20260902111948 18 21 0.0 4.8 0.36 0.48 0.48 96 1013.0
20260902111942 18 51 0.0 6.4 0.36 0.48 0.48 96 1013.0
20260902111540 19 16 0.0 4.8 0.36 0.48 0.48 96 1013.0
20260902111445 19 13 0.0 4.8 0.36 0.48 0.48 97 1013.0
20260902111141 19 13 0.0 4.8 0.36 0.48 0.48 97 1013.2
20260902111052 19 13 0.0 4.8 0.36 0.48 0.48 96 1013.2
20260902110939 19 14 0.0 4.8 0.36 0.48 0.48 96 1013.6
20260902110739 19 13 0.0 3.2 0.36 0.48 0.48 96 1013.8
20260902110538 19 13 0.0 3.2 0.36 0.48 0.48 96 1013.8
20260902110439 19 14 0.0 3.2 0.36 0.48 0.48 97 1013.8
20260902110138 19 13 0.0 4.8 0.36 0.48 0.48 97 1013.9
20260902110036 19 13 0.0 4.8 0.36 0.13 0.48 97 1013.9
20260902105736 19 13 0.0 4.8 0.36 0.13 0.48 96 1013.8
20260902105549 19 13 0.0 4.8 0.36 0.13 0.48 96 1013.7
20260902105536 19 13 0.0 4.8 0.36 0.13 0.48 96 1013.6
20260902105335 19 13 0.0 4.8 0.36 0.13 0.48 96 1013.6
20260902105135 19 185 0.0 6.4 0.36 0.13 0.48 96 1013.4
20260902105049 19 185 0.0 6.4 0.36 0.13 0.48 96 1013.4
20260902105034 19 185 0.0 6.4 0.36 0.13 0.48 96 1013.4
20260902104731 19 185 0.0 6.4 0.36 0.13 0.48 96 1013.1
20260902104626 19 193 0.0 6.4 0.36 0.13 0.48 96 1013.0
20260902104549 19 193 0.0 6.4 0.36 0.13 0.48 96 1013.0
20260902104329 19 195 0.0 6.4 0.36 0.13 0.48 96 1012.9
20260902104129 19 175 0.0 4.8 0.36 0.13 0.48 96 1012.8
20260902104049 19 176 0.0 4.8 0.36 0.13 0.46 96 1012.8
20260902103929 19 176 0.0 4.8 0.33 0.13 0.46 96 1012.9
20260902103731 19 196 0.0 6.4 0.33 0.13 0.43 96 1013.0
20260902103547 19 214 0.0 6.4 0.25 0.13 0.36 96 1013.2
20260902103529 19 216 0.0 6.4 0.25 0.13 0.36 96 1013.4
20260902103328 19 221 0.0 6.4 0.10 0.13 0.18 96 1014.1
20260902103230 19 197 0.0 9.7 0.00 0.13 0.13 96 1013.7
20260902103048 19 199 0.0 9.7 0.00 0.13 0.13 96 1013.7
20260902102928 19 199 0.0 9.7 0.00 0.13 0.13 96 1013.8
20260902102727 18 188 0.0 9.7 0.00 0.13 0.13 96 1013.8
20260902102528 18 189 0.0 9.7 0.00 0.13 0.13 96 1013.9
20260902102326 18 188 0.0 9.7 0.00 0.13 0.13 96 1013.8
20260902102225 18 200 0.0 6.4 0.00 0.13 0.13 96 1013.8
20260902102048 18 200 0.0 6.4 0.00 0.13 0.13 96 1013.8
20260902101927 18 200 0.0 6.4 0.00 0.13 0.13 96 1013.8
20260902101823 18 207 0.0 4.8 0.00 0.13 0.13 96 1013.8
20260902101522 18 206 0.0 4.8 0.00 0.13 0.13 96 1013.9
20260902101322 18 207 0.0 4.8 0.00 0.13 0.13 96 1013.9
20260902101123 18 206 0.0 4.8 0.00 0.13 0.13 96 1013.8
20260902101050 18 207 0.0 4.8 0.00 0.13 0.13 96 1013.8
20260902100915 18 207 0.0 4.8 0.00 0.13 0.13 96 1013.6
20260902100903 18 207 0.0 4.8 0.00 0.13 0.13 96 1013.7
20260902100825 18 206 0.0 6.4 0.00 0.13 0.13 96 1013.6
20260902100447 18 206 0.0 6.4 0.00 0.13 0.13 96 1013.5
20260902100352 18 206 0.0 6.4 0.00 0.13 0.13 96 1013.6
20260902100105 18 207 0.0 6.4 0.00 0.13 0.13 96 1013.5
20260902095848 18 207 0.0 6.4 0.00 0.13 0.13 96 1013.6
20260902095839 18 206 0.0 6.4 0.00 0.13 0.13 96 1013.4
20260902095815 18 206 0.0 6.4 0.00 0.13 0.13 96 1013.5
20260902095453 18 152 0.0 4.8 0.00 0.13 0.13 95 1013.3
20260902095447 18 162 0.0 6.4 0.00 0.13 0.13 96 1013.3
20260902095049 18 154 0.0 4.8 0.00 0.13 0.13 95 1013.1
20260902094851 18 152 0.0 4.8 0.00 0.13 0.13 95 1013.1
20260902094841 18 148 0.0 4.8 0.00 0.13 0.13 95 1013.2
20260902094816 18 148 0.0 4.8 0.00 0.13 0.13 95 1013.2
20260902094448 18 148 0.0 4.8 0.00 0.13 0.13 95 1013.2
20260902094249 18 147 0.0 3.2 0.00 0.13 0.13 95 1013.1
20260902094150 18 147 0.0 3.2 0.00 0.13 0.13 95 1013.0
20260902094048 18 147 0.0 3.2 0.00 0.13 0.13 95 1013.0
20260902093947 18 147 0.0 3.2 0.00 0.13 0.13 95 1012.9
20260902093841 18 147 0.0 3.2 0.00 0.13 0.13 95 1012.8
20260902093815 18 147 0.0 3.2 0.00 0.13 0.13 95 1012.9
20260902093449 18 147 0.0 1.6 0.00 0.13 0.13 95 1012.6
20260902093353 18 147 0.0 3.2 0.00 0.13 0.13 95 1012.5
20260902093336 18 147 0.0 3.2 0.00 0.13 0.13 95 1012.6
20260902093301 18 147 0.0 3.2 0.00 0.13 0.13 95 1012.5
20260902092846 18 145 0.0 4.8 0.00 0.13 0.13 95 1012.5
20260902092747 18 144 0.0 4.8 0.00 0.13 0.13 95 1012.5
20260902092558 18 144 0.0 4.8 0.00 0.13 0.13 95 1012.5
20260902092547 18 144 0.0 4.8 0.00 0.13 0.13 95 1012.5
20260902092354 18 47 0.0 4.8 0.00 0.13 0.13 95 1012.4
20260902092338 18 141 0.0 4.8 0.00 0.13 0.13 95 1012.5
20260902092305 18 47 0.0 4.8 0.00 0.13 0.13 95 1012.4
20260902091849 18 32 0.0 4.8 0.00 0.13 0.13 95 1012.2
20260902091648 18 118 0.0 4.8 0.00 0.13 0.13 95 1012.2
20260902091547 18 118 0.0 4.8 0.00 0.13 0.13 95 1012.3
20260902091449 18 120 0.0 4.8 0.00 0.13 0.13 95 1012.4
20260902091439 18 161 0.0 6.4 0.00 0.13 0.13 95 1012.4
20260902091350 18 182 0.0 8.0 0.00 0.13 0.13 95 1012.5
20260902091303 18 182 0.0 8.0 0.00 0.13 0.13 95 1012.5
20260902090846 18 183 0.0 8.0 0.00 0.13 0.13 95 1012.4
20260902090646 18 183 0.0 9.7 0.00 0.13 0.13 95 1012.5
20260902090559 18 182 0.0 9.7 0.00 0.13 0.13 95 1012.6
20260902090548 18 183 0.0 9.7 0.00 0.13 0.13 95 1012.5
20260902090404 18 183 0.0 9.7 0.00 0.13 0.13 95 1012.7
20260902090348 18 145 0.0 9.7 0.00 0.13 0.13 95 1012.7
20260902090316 18 183 0.0 9.7 0.00 0.13 0.13 95 1012.7
20260902085846 18 165 0.0 9.7 0.00 0.13 0.13 96 1012.6
20260902085750 18 214 0.0 8.0 0.00 0.13 0.13 95 1012.6
20260902085549 18 214 0.0 8.0 0.00 0.13 0.13 95 1012.7
20260902085449 18 214 0.0 8.0 0.00 0.13 0.13 95 1012.8
20260902085247 18 162 0.0 8.0 0.00 0.13 0.13 95 1012.7
20260902085204 18 148 0.0 4.8 0.00 0.13 0.13 95 1012.4
20260902085053 18 148 0.0 4.8 0.00 0.13 0.13 95 1012.4
20260902084846 18 120 0.0 3.2 0.00 0.13 0.13 95 1012.0
20260902084647 18 118 0.0 3.2 0.00 0.13 0.13 95 1012.1
20260902084545 18 118 0.0 3.2 0.00 0.13 0.13 95 1012.0
20260902084447 18 120 0.0 3.2 0.00 0.13 0.13 95 1012.0
20260902084439 18 118 0.0 4.8 0.00 0.13 0.13 95 1012.1
20260902084349 18 120 0.0 4.8 0.00 0.13 0.13 95 1011.9
20260902084305 18 120 0.0 4.8 0.00 0.13 0.13 95 1011.9
20260902083848 18 178 0.0 6.4 0.00 0.13 0.13 95 1012.0
20260902083748 18 124 0.0 11.3 0.00 0.13 0.13 95 1012.0
20260902083545 18 113 0.0 11.3 0.00 0.13 0.13 95 1011.9
20260902083446 18 133 0.0 11.3 0.03 0.13 0.13 95 1011.7
20260902083351 18 63 0.0 11.3 0.03 0.13 0.13 95 1011.4
20260902083334 18 149 0.0 11.3 0.03 0.13 0.13 95 1011.5
20260902083301 18 63 0.0 11.3 0.03 0.13 0.13 95 1011.4
20260902082946 18 79 0.0 11.3 0.03 0.13 0.13 95 1011.1
20260902082647 18 0 0.0 6.4 0.03 0.13 0.13 95 1011.0
20260902082547 18 7 0.0 6.4 0.03 0.13 0.13 95 1011.0
20260902082446 18 51 0.0 6.4 0.03 0.13 0.13 95 1010.9
20260902082347 18 34 0.0 6.4 0.05 0.13 0.13 95 1011.2
20260902082332 18 17 0.0 6.4 0.03 0.13 0.13 95 1010.9
20260902082259 18 34 0.0 6.4 0.05 0.13 0.13 95 1011.2
20260902081946 18 39 0.0 6.4 0.05 0.13 0.13 95 1011.4
20260902081649 18 11 0.0 6.4 0.05 0.13 0.13 95 1011.6
20260902081554 18 25 0.0 6.4 0.05 0.13 0.13 95 1011.7
20260902081545 18 24 0.0 6.4 0.05 0.13 0.13 95 1011.7
20260902081248 18 23 0.0 6.4 0.08 0.13 0.13 95 1011.7
20260902081047 18 23 0.0 6.4 0.08 0.13 0.13 95 1011.9
20260902080847 18 24 0.0 6.4 0.08 0.13 0.13 95 1012.0
20260902080646 18 1 0.0 11.3 0.08 0.13 0.13 95 1011.9
20260902080558 18 1 0.0 11.3 0.08 0.13 0.13 95 1011.8
20260902080546 18 1 0.0 11.3 0.08 0.13 0.13 95 1011.8
20260902080247 18 1 0.0 11.3 0.08 0.13 0.13 94 1011.8
20260902080157 18 32 0.0 11.3 0.08 0.13 0.13 94 1011.9
20260902080055 18 32 0.0 11.3 0.08 0.13 0.13 94 1011.9
20260902075847 18 31 0.0 11.3 0.00 0.05 0.13 94 1012.0
20260902075839 18 39 0.0 8.0 0.00 0.05 0.13 94 1012.5
20260902075817 18 39 0.0 8.0 0.00 0.05 0.13 94 1012.4
20260902075447 18 35 0.0 8.0 0.00 0.05 0.13 94 1012.6
20260902075248 18 27 0.0 4.8 0.00 0.05 0.13 94 1012.4
20260902075047 18 28 0.0 8.0 0.00 0.05 0.13 94 1012.2
20260902074916 19 28 0.0 8.0 0.00 0.05 0.13 94 1012.6
20260902074848 18 28 0.0 8.0 0.00 0.05 0.13 94 1012.4
20260902074835 19 28 0.0 8.0 0.00 0.05 0.13 94 1012.6
20260902074448 19 28 0.0 9.7 0.00 0.05 0.13 94 1012.7
20260902074347 19 28 0.0 9.7 0.00 0.05 0.13 94 1012.7
20260902074047 19 30 0.0 9.7 0.00 0.05 0.13 94 1012.7
20260902074033 19 30 0.0 9.7 0.00 0.05 0.13 94 1012.8
20260902073848 19 44 0.0 9.7 0.00 0.05 0.13 94 1012.7
20260902073826 19 25 0.0 9.7 0.03 0.05 0.10 94 1012.4
20260902073806 19 45 0.0 9.7 0.03 0.05 0.13 94 1012.5
20260902073448 19 154 0.0 9.7 0.03 0.05 0.10 94 1012.4
20260902073347 19 11 0.0 9.7 0.03 0.05 0.10 95 1012.3
20260902073047 19 11 0.0 16.1 0.03 0.05 0.10 95 1012.4
20260902073031 19 49 0.0 16.1 0.03 0.05 0.10 95 1012.2
20260902072948 19 32 0.0 16.1 0.05 0.05 0.10 94 1012.2
20260902072646 19 11 0.0 16.1 0.05 0.05 0.10 94 1012.2
20260902072530 19 18 0.0 16.1 0.05 0.05 0.10 94 1012.1
20260902072448 19 24 0.0 16.1 0.05 0.05 0.10 94 1012.0
20260902072247 19 30 0.0 16.1 0.05 0.05 0.10 94 1012.1
20260902072032 19 32 0.0 11.3 0.05 0.05 0.08 94 1012.2
20260902071949 19 32 0.0 11.3 0.05 0.05 0.08 94 1012.2
20260902071828 19 21 0.0 11.3 0.05 0.05 0.08 94 1012.2
20260902071824 19 34 0.0 11.3 0.05 0.05 0.08 93 1012.3
20260902071805 19 51 0.0 11.3 0.05 0.05 0.08 94 1012.1
20260902071233 19 35 0.0 6.4 0.05 0.05 0.05 93 1012.5
20260902071036 -17 35 0.0 0.0 0.00 0.00 0.00 1012.6
20260902070927 -17 0.0 0.0 0.05 0.05 0.05
20260902070634 -17 0.0 0.0 0.05 0.05 0.05
20260902070334 -17 0.0 0.0 0.05 0.05 0.05
20260902070211 -17 0.0 0.0 0.05 0.05 0.05
20260902070131 -17 0.0 0.0 0.05 0.05 0.05
20260902065916 -17 0.0 0.0 0.00 0.00 0.05 1014.3
20260902065911 -17 0.0 0.0 0.00 0.00 0.05
20260902065856 -17 0.0 0.0 0.00 0.00 0.05 1014.3
20260902065435 -17 0.0 0.0 0.00 0.00 0.05 1014.3
20260902065235 -17 0.0 0.0 0.00 0.00 0.05 1014.3
20260902065137 20 23 0.0 0.0 0.00 0.00 0.05 90 1014.3
20260902065104 20 23 0.0 0.0 0.00 0.00 0.05 90 1014.3
20260902064850 20 23 0.0 9.7 0.00 0.00 0.05 90 1014.5
20260902064843 20 23 0.0 0.0 0.00 0.00 0.05 90 1014.3
20260902064407 20 23 0.0 9.7 0.00 0.00 0.05 90 1014.6
20260902064202 20 23 0.0 9.7 0.00 0.00 0.05 90 1014.8
20260902064100 20 49 0.0 14.5 0.00 0.00 0.05 91 1015.0
20260902064002 20 133 0.0 14.5 0.00 0.00 0.05 91 1015.1
20260902063801 20 165 0.0 14.5 0.00 0.00 0.03 91 1015.3
20260902063710 21 152 0.0 22.5 0.00 0.00 0.03 92 1015.5
20260902063601 21 152 0.0 22.5 0.00 0.00 0.03 92 1015.5
20260902063400 21 166 0.0 22.5 0.00 0.00 0.03 92 1015.6
20260902063158 21 168 0.0 22.5 0.00 0.00 0.03 92 1015.9
20260902063058 21 183 0.0 22.5 0.00 0.00 0.00 93 1015.9
20260902062958 21 189 0.0 22.5 0.00 0.00 0.00 93 1015.8
20260902062948 21 169 0.0 22.5 0.00 0.00 0.00 93 1016.1
20260902062906 21 144 0.0 17.7 0.00 0.00 0.00 94 1016.3
20260902062820 21 144 0.0 17.7 0.00 0.00 0.00 94 1016.3
20260902062009 21 195 0.0 16.1 0.03 0.00 0.03 95 1016.6
20260902061809 21 195 0.0 16.1 0.03 0.00 0.03 95 1016.4
20260902061706 21 195 0.0 16.1 0.03 0.00 0.03 95 1016.2
20260902061506 21 212 0.0 16.1 0.03 0.00 0.03 95 1015.8
20260902061307 21 196 0.0 14.5 0.03 0.00 0.03 95 1015.4
20260902061106 21 192 0.0 14.5 0.03 0.00 0.03 96 1015.2
20260902061009 21 189 0.0 9.7 0.03 0.00 0.03 96 1015.0
20260902060808 21 197 0.0 9.7 0.03 0.00 0.03 96 1014.7
20260902060706 21 188 0.0 9.7 0.00 0.00 0.00 96 1014.7
20260902060607 21 173 0.0 4.8 0.00 0.00 0.00 96 1014.4
20260902060309 21 151 0.0 0.0 0.00 0.00 0.00 96 1014.2
20260902060106 21 149 0.0 0.0 0.00 0.00 0.00 96 1013.9
20260902060058 21 149 0.0 0.0 0.00 0.00 0.00 96 1013.5
20260902060032 21 149 0.0 0.0 0.00 0.00 0.00 96 1013.7
20260902055705 21 148 0.0 0.0 0.00 0.00 0.00 96 1013.4
20260902055601 21 149 0.0 0.0 0.00 0.00 0.00 96 1013.3
20260902055307 21 148 0.0 0.0 0.00 0.00 0.00 96 1013.2
20260902055209 21 147 0.0 0.0 0.00 0.00 0.00 96 1013.2
20260902055114 21 149 0.0 0.0 0.00 0.00 0.00 96 1012.6
20260902055045 21 148 0.0 0.0 0.00 0.00 0.00 96 1012.9
20260902054705 21 148 0.0 0.0 0.00 0.00 0.00 96 1012.5
20260902054506 21 35 0.0 0.0 0.00 0.00 0.00 96 1012.1
20260902054408 21 35 0.0 0.0 0.00 0.00 0.00 96 1011.9
20260902054308 21 35 0.0 0.0 0.00 0.00 0.00 96 1011.9
20260902054109 21 35 0.0 0.0 0.00 0.00 0.00 96 1012.0
20260902054102 21 37 0.0 0.0 0.00 0.00 0.00 96 1011.9
20260902054034 21 37 0.0 0.0 0.00 0.00 0.00 96 1011.9
20260902053705 21 35 0.0 0.0 0.00 0.00 0.00 96 1011.9
20260902053609 21 37 0.0 0.0 0.00 0.00 0.00 96 1011.8
20260902053309 21 37 0.0 0.0 0.00 0.00 0.00 96 1012.1
20260902053138 21 37 0.0 0.0 0.00 0.00 0.00 96 1012.6
20260902053108 21 37 0.0 0.0 0.00 0.00 0.00 96 1012.4
20260902053101 21 37 0.0 0.0 0.00 0.00 0.00 96 1012.6
20260902052707 21 37 0.0 0.0 0.00 0.00 0.00 96 1012.5
20260902052506 21 35 0.0 0.0 0.00 0.00 0.00 95 1012.4
20260902052307 21 35 0.0 0.0 0.00 0.00 0.00 95 1012.4
20260902052208 21 37 0.0 0.0 0.00 0.00 0.00 95 1012.4
20260902052100 21 37 0.0 0.0 0.00 0.00 0.00 96 1012.8
20260902052033 21 38 0.0 0.0 0.00 0.00 0.00 95 1012.7
20260902051705 21 37 0.0 0.0 0.00 0.00 0.00 96 1012.9
20260902051602 21 202 0.0 0.0 0.00 0.00 0.00 96 1013.4
20260902051307 21 202 0.0 0.0 0.00 0.00 0.00 96 1013.7
20260902051132 21 202 0.0 0.0 0.00 0.00 0.00 96 1014.0
20260902051127 21 202 0.0 0.0 0.00 0.00 0.00 96 1014.0
20260902051119 21 202 0.0 0.0 0.00 0.00 0.00 96 1013.7
20260902051049 21 202 0.0 0.0 0.00 0.00 0.00 96 1014.0
20260902050610 21 200 0.0 0.0 0.00 0.00 0.00 96 1014.1
20260902050311 21 202 0.0 0.0 0.00 0.00 0.00 96 1014.2
20260902050304 21 202 0.0 0.0 0.00 0.00 0.00 96 1014.3
20260902050206 21 202 0.0 0.0 0.00 0.00 0.00 96 1014.3
20260902050059 20 200 0.0 0.0 0.00 0.00 0.00 96 1014.3
20260902050030 21 202 0.0 0.0 0.00 0.00 0.00 96 1014.3
20260902045701 20 202 0.0 0.0 0.00 0.00 0.00 96 1014.3
20260902045501 20 202 0.0 0.0 0.00 0.00 0.00 96 1014.2
20260902045309 20 200 0.0 0.0 0.00 0.00 0.00 96 1014.1
20260902045300 20 202 0.0 0.0 0.00 0.00 0.00 96 1014.0
20260902045207 20 202 0.0 0.0 0.00 0.00 0.00 95 1013.5
20260902045111 20 200 0.0 0.0 0.00 0.00 0.00 95 1013.6
20260902045102 20 202 0.0 0.0 0.00 0.00 0.00 96 1013.8
20260902045030 20 202 0.0 0.0 0.00 0.00 0.00 95 1013.6
20260902044455 20 202 0.0 0.0 0.00 0.00 0.00 95 1013.4
20260902044312 20 202 0.0 0.0 0.00 0.00 0.00 95 1013.3
20260902044304 20 202 0.0 0.0 0.00 0.00 0.00 95 1013.3
20260902044056 20 202 0.0 0.0 0.00 0.00 0.00 95 1013.2
20260902043856 20 202 0.0 0.0 0.00 0.00 0.00 95 1013.1
20260902043809 20 200 0.0 0.0 0.00 0.00 0.00 95 1013.1
20260902043801 20 200 0.0 0.0 0.00 0.00 0.00 95 1013.1
20260902043454 20 202 0.0 0.0 0.00 0.00 0.00 95 1013.1
20260902043351 20 202 0.0 0.0 0.00 0.00 0.00 95 1012.9
20260902043306 20 200 0.0 0.0 0.00 0.00 0.00 95 1013.0
20260902043051 20 202 0.0 0.0 0.00 0.00 0.00 95 1012.9
20260902042852 20 202 0.0 0.0 0.00 0.00 0.00 95 1012.8
20260902042803 20 202 0.0 0.0 0.00 0.00 0.00 95 1012.7
20260902042649 20 200 0.0 0.0 0.00 0.00 0.00 95 1012.6
20260902042450 20 202 0.0 0.0 0.00 0.00 0.00 95 1012.7
20260902042350 20 202 0.0 0.0 0.00 0.00 0.00 95 1012.7
20260902042308 20 200 0.0 0.0 0.00 0.00 0.00 95 1012.7
20260902042048 20 202 0.0 0.0 0.00 0.00 0.00 94 1012.7
20260902041849 20 200 0.0 0.0 0.00 0.00 0.00 95 1012.7
20260902041756 20 202 0.0 0.0 0.00 0.00 0.00 95 1012.7
20260902041648 20 200 0.0 0.0 0.00 0.00 0.00 95 1012.7
20260902041447 20 202 0.0 0.0 0.00 0.00 0.00 95 1012.8
20260902041345 20 202 0.0 0.0 0.00 0.00 0.00 95 1012.8
20260902041257 20 202 0.0 0.0 0.00 0.00 0.00 95 1012.8
20260902041044 20 202 0.0 0.0 0.00 0.00 0.00 95 1012.7
20260902040944 20 202 0.0 0.0 0.00 0.00 0.00 95 1012.7
20260902040759 20 200 0.0 0.0 0.00 0.00 0.00 95 1012.7
20260902040644 20 200 0.0 0.0 0.00 0.00 0.00 95 1012.8
20260902040441 20 202 0.0 0.0 0.00 0.00 0.00 95 1012.6
20260902040254 20 200 0.0 0.0 0.00 0.00 0.00 95 1012.7
20260902040239 20 202 0.0 0.0 0.00 0.00 0.00 95 1012.7
20260902040036 20 202 0.0 0.0 0.00 0.00 0.00 95 1012.7
20260902035936 20 202 0.0 0.0 0.00 0.00 0.00 95 1012.6
20260902035756 20 202 0.0 0.0 0.00 0.00 0.00 94 1012.8
20260902035635 20 202 0.0 0.0 0.00 0.00 0.00 94 1012.8
20260902035534 20 200 0.0 0.0 0.00 0.00 0.00 94 1012.9
20260902035234 20 202 0.0 0.0 0.00 0.00 0.00 94 1012.8
20260902035032 20 202 0.0 0.0 0.00 0.00 0.00 94 1012.7
20260902034831 20 202 0.0 0.0 0.00 0.00 0.00 94 1012.7
20260902034755 20 202 0.0 0.0 0.00 0.00 0.00 94 1012.7
20260902034630 20 202 0.0 0.0 0.00 0.00 0.00 94 1012.7
20260902034429 20 202 0.0 0.0 0.00 0.00 0.00 94 1012.7
20260902034326 20 202 0.0 0.0 0.00 0.00 0.00 94 1012.7
20260902034254 20 202 0.0 0.0 0.00 0.00 0.00 94 1012.7
20260902034029 20 202 0.0 0.0 0.00 0.00 0.00 94 1012.8
20260902033829 20 200 0.0 0.0 0.00 0.00 0.00 94 1012.8
20260902033752 20 202 0.0 0.0 0.00 0.00 0.00 94 1012.9
20260902033630 20 202 0.0 0.0 0.00 0.00 0.00 94 1012.9
20260902033434 20 200 0.0 0.0 0.00 0.00 0.00 94 1013.1
20260902033326 20 200 0.0 0.0 0.00 0.00 0.00 94 1013.1
20260902033251 20 202 0.0 0.0 0.00 0.00 0.00 94 1013.1
20260902033027 20 202 0.0 0.0 0.00 0.00 0.00 94 1013.3
20260902032925 20 202 0.0 0.0 0.00 0.00 0.00 94 1013.3
20260902032752 20 202 0.0 0.0 0.00 0.00 0.00 94 1013.3
20260902032626 20 202 0.0 0.0 0.00 0.00 0.00 94 1013.4
20260902032424 20 202 0.0 0.0 0.00 0.00 0.00 94 1013.5
20260902032224 20 202 0.0 0.0 0.00 0.00 0.00 94 1013.6
20260902032022 20 200 0.0 0.0 0.00 0.00 0.00 94 1013.6
20260902031920 20 202 0.0 0.0 0.00 0.00 0.00 94 1013.6
20260902031748 20 200 0.0 0.0 0.00 0.00 0.00 94 1013.5
20260902031627 21 202 0.0 0.0 0.00 0.00 0.00 93 1013.6
20260902031622 21 200 0.0 0.0 0.00 0.00 0.00 94 1013.6
20260902031541 21 200 0.0 0.0 0.00 0.00 0.00 93 1013.6
20260902031220 21 200 0.0 0.0 0.00 0.00 0.00 93 1013.6
20260902031050 21 202 0.0 0.0 0.00 0.00 0.00 93 1013.6
20260902031042 21 202 0.0 0.0 0.00 0.00 0.00 94 1013.6
20260902031013 21 202 0.0 0.0 0.00 0.00 0.00 94 1013.6
20260902030617 21 202 0.0 0.0 0.00 0.00 0.00 93 1013.5
20260902030417 21 202 0.0 0.0 0.00 0.00 0.00 93 1013.5
20260902030246 21 200 0.0 0.0 0.00 0.00 0.00 93 1013.5
20260902030216 21 202 0.0 0.0 0.00 0.00 0.00 93 1013.5
20260902030105 21 200 0.0 0.0 0.00 0.00 0.00 93 1013.5
20260902030048 21 202 0.0 0.0 0.00 0.00 0.00 93 1013.5
20260902030005 21 200 0.0 0.0 0.00 0.00 0.00 93 1013.5
20260902025412 21 202 0.0 0.0 0.00 0.00 0.00 93 1013.4
20260902025247 21 199 0.0 0.0 0.00 0.00 0.00 93 1013.3
20260902025211 21 200 0.0 0.0 0.00 0.00 0.00 93 1013.3
20260902025052 21 200 0.0 0.0 0.00 0.00 0.00 92 1013.2
20260902025038 21 202 0.0 0.0 0.00 0.00 0.00 92 1013.3
20260902025006 21 200 0.0 0.0 0.00 0.00 0.00 92 1013.3
20260902024610 21 202 0.0 0.0 0.00 0.00 0.00 93 1013.2
20260902024409 21 200 0.0 0.0 0.00 0.00 0.00 92 1013.2
20260902024359 21 202 0.0 0.0 0.00 0.00 0.00 92 1013.3
20260902024246 21 202 0.0 0.0 0.00 0.00 0.00 92 1013.3
20260902024013 21 202 0.0 0.0 0.00 0.00 0.00 92 1013.3
20260902023810 21 200 0.0 0.0 0.00 0.00 0.00 92 1013.2
20260902023746 21 203 0.0 0.0 0.00 0.00 0.00 92 1013.2
20260902023606 21 200 0.0 0.0 0.00 0.00 0.00 92 1013.2
20260902023405 21 200 0.0 0.0 0.00 0.00 0.00 92 1013.3
20260902023247 21 200 0.0 0.0 0.00 0.00 0.00 92 1013.2
20260902023203 21 202 0.0 0.0 0.00 0.00 0.00 92 1013.3
20260902023125 21 202 0.0 0.0 0.00 0.00 0.00 92 1013.4
20260902023053 21 200 0.0 0.0 0.00 0.00 0.00 92 1013.3
20260902023033 21 202 0.0 0.0 0.00 0.00 0.00 92 1013.3
20260902022604 21 200 0.0 0.0 0.00 0.00 0.00 92 1013.2
20260902022402 21 200 0.0 0.0 0.00 0.00 0.00 92 1013.1
20260902022237 21 200 0.0 0.0 0.00 0.00 0.00 92 1013.2
20260902022124 21 203 0.0 0.0 0.00 0.00 0.00 92 1013.1
20260902022035 21 202 0.0 0.0 0.00 0.00 0.00 92 1013.2
20260902021955 21 200 0.0 0.0 0.00 0.00 0.00 92 1013.2
20260902021602 21 203 0.0 0.0 0.00 0.00 0.00 91 1013.2
20260902021402 21 200 0.0 0.0 0.00 0.00 0.00 91 1013.3
20260902021238 21 200 0.0 0.0 0.00 0.00 0.00 91 1013.3
20260902021201 21 200 0.0 0.0 0.00 0.00 0.00 91 1013.3
20260902021053 21 200 0.0 0.0 0.00 0.00 0.00 91 1013.3
20260902021034 21 203 0.0 0.0 0.00 0.00 0.00 91 1013.3
20260902021021 21 202 0.0 0.0 0.00 0.00 0.00 91 1013.3
20260902020656 21 203 0.0 0.0 0.00 0.00 0.00 91 1013.4
20260902020358 21 202 0.0 0.0 0.00 0.00 0.00 91 1013.4
20260902020235 21 202 0.0 0.0 0.00 0.00 0.00 91 1013.3
20260902020156 21 200 0.0 0.0 0.00 0.00 0.00 91 1013.4
20260902015957 22 200 0.0 0.0 0.00 0.00 0.00 91 1013.4
20260902015752 22 200 0.0 0.0 0.00 0.00 0.00 91 1013.3
20260902015730 22 202 0.0 0.0 0.00 0.00 0.00 91 1013.3
20260902015552 22 200 0.0 0.0 0.00 0.00 0.00 91 1013.3
20260902015454 22 202 0.0 0.0 0.00 0.00 0.00 91 1013.4
20260902015250 22 202 0.0 0.0 0.00 0.00 0.00 91 1013.3
20260902015231 22 202 0.0 0.0 0.00 0.00 0.00 90 1013.3
20260902014951 22 200 0.0 0.0 0.00 0.00 0.00 91 1013.3
20260902014750 22 200 0.0 0.0 0.00 0.00 0.00 90 1013.2
20260902014732 22 202 0.0 0.0 0.00 0.00 0.00 90 1013.2
20260902014550 22 202 0.0 0.0 0.00 0.00 0.00 90 1013.1
20260902014350 22 202 0.0 0.0 0.00 0.00 0.00 90 1013.1
20260902014232 22 202 0.0 0.0 0.00 0.00 0.00 90 1013.0
20260902014149 22 202 0.0 0.0 0.00 0.00 0.00 90 1013.0
20260902013950 22 200 0.0 0.0 0.00 0.00 0.00 90 1013.0
20260902013723 22 202 0.0 0.0 0.00 0.00 0.00 90 1013.0
20260902013647 22 200 0.0 0.0 0.00 0.00 0.00 90 1013.0
20260902013443 22 202 0.0 0.0 0.00 0.00 0.00 90 1013.0
20260902013223 22 200 0.0 0.0 0.00 0.00 0.00 89 1013.0
20260902013144 22 200 0.0 0.0 0.00 0.00 0.00 89 1013.1
20260902012946 22 202 0.0 0.0 0.00 0.00 0.00 89 1013.0
20260902012743 22 202 0.0 0.0 0.00 0.00 0.00 89 1013.1
20260902012722 22 200 0.0 0.0 0.00 0.00 0.00 89 1013.1
20260902012543 22 202 0.0 0.0 0.00 0.00 0.00 89 1013.0
20260902012343 22 202 0.0 0.0 0.00 0.00 0.00 89 1013.1
20260902012240 23 202 0.0 0.0 0.00 0.00 0.00 88 1013.0
20260902012213 23 200 0.0 0.0 0.00 0.00 0.00 88 1013.0
20260902012045 23 200 0.0 0.0 0.00 0.00 0.00 88 1012.9
20260902011741 23 200 0.0 0.0 0.00 0.00 0.00 88 1013.0
20260902011712 23 199 0.0 0.0 0.00 0.00 0.00 88 1013.0
20260902011541 23 200 0.0 0.0 0.00 0.00 0.00 88 1013.0
20260902011456 23 200 0.0 0.0 0.00 0.00 0.00 87 1013.0
20260902011439 23 202 0.0 0.0 0.00 0.00 0.00 87 1013.0
20260902011140 23 202 0.0 0.0 0.00 0.00 0.00 87 1013.0
20260902010939 23 202 0.0 0.0 0.00 0.00 0.00 87 1012.9
20260902010838 23 200 0.0 0.0 0.00 0.00 0.00 87 1012.9
20260902010706 23 202 0.0 0.0 0.00 0.00 0.00 87 1012.9
20260902010638 23 200 0.0 0.0 0.00 0.00 0.00 87 1012.9
20260902010336 23 200 0.0 0.0 0.00 0.00 0.00 86 1012.8
20260902010231 23 200 0.0 0.0 0.00 0.00 0.00 86 1012.9
20260902010205 23 200 0.0 0.0 0.00 0.00 0.00 86 1012.9
20260902005935 23 202 0.0 0.0 0.00 0.00 0.00 86 1012.9
20260902005834 24 202 0.0 0.0 0.00 0.00 0.00 86 1012.9
20260902005705 24 200 0.0 0.0 0.00 0.00 0.00 86 1012.9
20260902005535 24 202 0.0 0.0 0.00 0.00 0.00 86 1012.8
20260902005333 24 202 0.0 0.0 0.00 0.00 0.00 85 1012.9
20260902005205 24 203 0.0 0.0 0.00 0.00 0.00 85 1012.9
20260902005133 24 200 0.0 0.0 0.00 0.00 0.00 85 1012.9
20260902004933 24 200 0.0 0.0 0.00 0.00 0.00 85 1012.9
20260902004834 24 200 0.0 0.0 0.00 0.00 0.00 85 1012.9
20260902004704 24 200 0.0 0.0 0.00 0.00 0.00 85 1012.9
20260902004530 24 202 0.0 0.0 0.00 0.00 0.00 85 1012.9
20260902004435 24 202 0.0 0.0 0.00 0.00 0.00 84 1012.9
20260902004203 25 202 0.0 0.0 0.00 0.00 0.00 84 1012.9
20260902004131 25 202 0.0 0.0 0.00 0.00 0.00 84 1012.9
20260902003932 25 202 0.0 0.0 0.00 0.00 0.00 84 1012.9
20260902003730 25 203 0.0 0.0 0.00 0.00 0.00 84 1012.9
20260902003704 25 200 0.0 0.0 0.00 0.00 0.00 84 1012.9
20260902003532 25 200 0.0 0.0 0.00 0.00 0.00 84 1012.8
20260902003426 25 202 0.0 0.0 0.00 0.00 0.00 83 1012.7
20260902003203 25 200 0.0 0.0 0.00 0.00 0.00 83 1012.9
20260902003133 25 202 0.0 0.0 0.00 0.00 0.00 83 1012.9
20260902003034 25 202 0.0 0.0 0.00 0.00 0.00 83 1012.8
20260902002734 25 202 0.0 0.0 0.00 0.00 0.00 83 1012.9
20260902002704 25 200 0.0 0.0 0.00 0.00 0.00 82 1012.8
20260902002534 25 199 0.0 0.0 0.00 0.00 0.00 82 1012.9
20260902002321 25 200 0.0 0.0 0.00 0.00 0.00 82 1013.0
20260902002317 25 202 0.0 0.0 0.00 0.00 0.00 82 1012.9
20260902002203 25 202 0.0 0.0 0.00 0.00 0.00 82 1013.0
20260902001919 25 203 0.0 0.0 0.00 0.00 0.00 82 1012.9
20260902001716 25 202 0.0 0.0 0.00 0.00 0.00 81 1013.0
20260902001703 25 202 0.0 0.0 0.00 0.00 0.00 81 1013.1
20260902001517 25 200 0.0 0.0 0.00 0.00 0.00 81 1013.0
20260902001315 25 202 0.0 0.0 0.00 0.00 0.00 79 1013.1
20260902001203 25 202 0.0 0.0 0.00 0.00 0.00 79 1013.0
20260902001115 25 200 0.0 0.0 0.00 0.00 0.00 79 1013.0
20260902000921 26 202 0.0 0.0 0.00 0.00 0.00 79 1013.2
20260902000915 26 202 0.0 0.0 0.00 0.00 0.00 79 1013.1
20260902000708 26 200 0.0 0.0 0.00 0.00 0.00 79 1013.2
20260902000513 26 202 0.0 0.0 0.00 0.00 0.00 79 1013.2
20260902000313 26 202 0.0 0.0 0.00 0.00 0.00 79 1013.3
20260902000207 26 202 0.0 0.0 0.00 0.00 0.00 78 1013.1
20260902000111 26 200 0.0 0.0 0.00 0.00 0.00 79 1013.1
20260901235911 26 200 0.0 0.0 0.00 0.00 0.00 78 1013.2
20260901235715 26 202 0.0 0.0 0.00 0.00 0.00 78 1013.2
20260901235709 26 200 0.0 0.0 0.00 0.00 0.00 78 1013.2
20260901235514 26 200 0.0 0.0 0.00 0.00 0.00 78 1013.3
20260901235509 26 200 0.0 0.0 0.00 0.00 0.00 79 1013.2
20260901235219 26 202 0.0 0.0 0.00 0.00 0.00 78 1013.3
20260901235111 26 200 0.0 0.0 0.00 0.00 0.00 78 1013.3
20260901235009 26 202 0.0 0.0 0.00 0.00 0.00 79 1013.2
20260901234954 26 200 0.0 0.0 0.00 0.00 0.00 79 1013.3
20260901234922 26 200 0.0 0.0 0.00 0.00 0.00 79 1013.2
20260901234507 26 202 0.0 0.0 0.00 0.00 0.00 78 1013.2
20260901234307 26 202 0.0 0.0 0.00 0.00 0.00 78 1013.2
20260901234206 26 202 0.0 0.0 0.00 0.00 0.00 78 1013.3
20260901234106 26 202 0.0 0.0 0.00 0.00 0.00 78 1013.3
20260901233907 26 202 0.0 0.0 0.00 0.00 0.00 78 1013.2
20260901233817 26 202 0.0 0.0 0.00 0.00 0.00 78 1013.3
20260901233708 26 202 0.0 0.0 0.00 0.00 0.00 78 1013.3
20260901233508 26 202 0.0 0.0 0.00 0.00 0.00 77 1013.2
20260901233408 27 200 0.0 0.0 0.00 0.00 0.00 77 1013.2
20260901233207 27 202 0.0 0.0 0.00 0.00 0.00 77 1013.2
20260901233106 27 202 0.0 0.0 0.00 0.00 0.00 76 1013.1
20260901232906 26 202 0.0 0.0 0.00 0.00 0.00 75 1013.2
20260901232724 26 202 0.0 0.0 0.00 0.00 0.00 75 1013.2
20260901232507 27 202 0.0 0.0 0.00 0.00 0.00 75 1013.2
20260901232406 27 202 0.0 0.0 0.00 0.00 0.00 75 1013.2
20260901232209 27 202 0.0 0.0 0.00 0.00 0.00 74 1013.2
20260901232107 27 200 0.0 0.0 0.00 0.00 0.00 74 1013.2
20260901232005 27 202 0.0 0.0 0.00 0.00 0.00 75 1013.2
20260901231707 27 200 0.0 0.0 0.00 0.00 0.00 75 1013.2
20260901231506 27 200 0.0 0.0 0.00 0.00 0.00 74 1013.2
20260901231306 27 202 0.0 0.0 0.00 0.00 0.00 74 1013.2
20260901231208 27 202 0.0 0.0 0.00 0.00 0.00 74 1013.2
20260901231106 27 200 0.0 0.0 0.00 0.00 0.00 74 1013.2
20260901231009 27 200 0.0 0.0 0.00 0.00 0.00 74 1013.3
20260901230707 27 200 0.0 0.0 0.00 0.00 0.00 74 1013.2
20260901230606 27 200 0.0 0.0 0.00 0.00 0.00 74 1013.2
20260901230306 27 200 0.0 0.0 0.00 0.00 0.00 74 1013.2
20260901230206 27 202 0.0 0.0 0.00 0.00 0.00 74 1013.2
20260901230107 27 200 0.0 0.0 0.00 0.00 0.00 74 1013.2
20260901230053 27 202 0.0 0.0 0.00 0.00 0.00 75 1013.2
20260901230006 27 200 0.0 0.0 0.00 0.00 0.00 76 1013.2
20260901225921 27 200 0.0 0.0 0.00 0.00 0.00 76 1013.2
20260901225608 27 200 0.0 0.0 0.00 0.00 0.00 76 1013.2
20260901225306 27 202 0.0 0.0 0.00 0.00 0.00 76 1013.1
20260901225206 27 200 0.0 0.0 0.00 0.00 0.00 76 1013.1
20260901225106 27 200 0.0 0.0 0.00 0.00 0.00 75 1013.1
20260901225001 27 202 0.0 0.0 0.00 0.00 0.00 76 1013.2
20260901224950 27 202 0.0 0.0 0.00 0.00 0.00 75 1013.1
20260901224921 27 202 0.0 0.0 0.00 0.00 0.00 76 1013.2
20260901224608 27 200 0.0 0.0 0.00 0.00 0.00 75 1013.1
20260901224306 27 202 0.0 0.0 0.00 0.00 0.00 75 1013.1
20260901224219 27 202 0.0 0.0 0.00 0.00 0.00 74 1013.2
20260901224206 27 200 0.0 0.0 0.00 0.00 0.00 75 1013.1
20260901223958 27 200 0.0 0.0 0.00 0.00 0.00 72 1013.3
20260901223947 27 199 0.0 0.0 0.00 0.00 0.00 72 1013.1
20260901223921 27 200 0.0 0.0 0.00 0.00 0.00 72 1013.3
20260901223508 27 202 0.0 0.0 0.00 0.00 0.00 73 1013.3
20260901223306 27 200 0.0 0.0 0.00 0.00 0.00 73 1013.2
20260901223215 27 200 0.0 0.0 0.00 0.00 0.00 74 1013.2
20260901223206 27 199 0.0 0.0 0.00 0.00 0.00 75 1013.2
20260901222955 27 199 0.0 0.0 0.00 0.00 0.00 73 1013.3
20260901222944 27 202 0.0 0.0 0.00 0.00 0.00 74 1013.3
20260901222507 27 200 0.0 0.0 0.00 0.00 0.00 72 1013.2
20260901222457 27 200 0.0 0.0 0.00 0.00 0.00 73 1013.2
20260901222436 27 200 0.0 0.0 0.00 0.00 0.00 73 1013.2
20260901222107 27 200 0.0 0.0 0.00 0.00 0.00 74 1013.3
20260901222006 27 200 0.0 0.0 0.00 0.00 0.00 74 1013.2
20260901221715 27 200 0.0 0.0 0.00 0.00 0.00 75 1013.2
20260901221606 27 202 0.0 0.0 0.00 0.00 0.00 76 1013.2
20260901221452 27 200 0.0 0.0 0.00 0.00 0.00 74 1013.2
20260901221432 27 200 0.0 0.0 0.00 0.00 0.00 74 1013.2
20260901221107 27 200 0.0 0.0 0.00 0.00 0.00 74 1013.3
20260901220903 27 200 0.0 0.0 0.00 0.00 0.00 75 1013.1
20260901220717 27 200 0.0 0.0 0.00 0.00 0.00 74 1013.2
20260901220608 27 202 0.0 0.0 0.00 0.00 0.00 75 1013.1
20260901220507 27 200 0.0 0.0 0.00 0.00 0.00 72 1013.2
20260901220458 27 200 0.0 0.0 0.00 0.00 0.00 72 1013.2
20260901220434 27 200 0.0 0.0 0.00 0.00 0.00 72 1013.2
20260901215903 28 200 0.0 0.0 0.00 0.00 0.00 72 1013.1
20260901215704 28 202 0.0 0.0 0.00 0.00 0.00 71 1013.1
20260901215525 28 200 0.0 0.0 0.00 0.00 0.00 73 1013.1
20260901215520 28 202 0.0 0.0 0.00 0.00 0.00 72 1013.1
20260901215514 28 202 0.0 0.0 0.00 0.00 0.00 72 1013.1
20260901215446 28 200 0.0 0.0 0.00 0.00 0.00 73 1013.1
20260901214907 28 200 0.0 0.0 0.00 0.00 0.00 72 1013.2
20260901214811 28 200 0.0 0.0 0.00 0.00 0.00 71 1013.1
20260901214709 28 200 0.0 0.0 0.00 0.00 0.00 71 1013.1
20260901214507 28 200 0.0 0.0 0.00 0.00 0.00 69 1013.1
20260901214307 28 200 0.0 0.0 0.00 0.00 0.00 70 1013.1
20260901214219 28 199 0.0 0.0 0.00 0.00 0.00 70 1013.1
20260901214106 28 200 0.0 0.0 0.00 0.00 0.00 69 1013.1
20260901214022 28 200 0.0 3.2 0.00 0.00 0.00 71 1013.1
20260901213957 28 200 0.0 1.6 0.00 0.00 0.00 69 1013.1
20260901213933 28 200 0.0 3.2 0.00 0.00 0.00 71 1013.1
20260901213506 28 200 0.0 6.4 0.00 0.00 0.00 70 1013.2
20260901213307 28 200 0.0 6.4 0.00 0.00 0.00 66 1013.1
20260901213208 28 200 0.0 6.4 0.00 0.00 0.00 66 1013.0
20260901213107 28 200 0.0 6.4 0.00 0.00 0.00 66 1013.1
20260901213046 28 202 0.0 6.4 0.00 0.00 0.00 68 1013.1
20260901212955 28 200 0.0 6.4 0.00 0.00 0.00 64 1013.1
20260901212507 28 206 0.0 3.2 0.00 0.00 0.00 66 1013.1
20260901212307 29 204 0.0 3.2 0.00 0.00 0.00 67 1013.1
20260901212209 28 203 0.0 3.2 0.00 0.00 0.00 67 1013.1
20260901212106 28 206 0.0 3.2 0.00 0.00 0.00 65 1013.0
20260901211958 28 204 0.0 3.2 0.00 0.00 0.00 69 1013.1
20260901211947 28 204 0.0 3.2 0.00 0.00 0.00 65 1013.2
20260901211920 28 204 0.0 3.2 0.00 0.00 0.00 69 1013.1
20260901211516 28 206 0.0 4.8 0.00 0.00 0.00 72 1013.1
20260901211507 28 204 0.0 4.8 0.00 0.00 0.00 69 1013.1
20260901211206 28 206 0.0 4.8 0.00 0.00 0.00 70 1013.1
20260901211106 28 203 0.0 4.8 0.00 0.00 0.00 70 1013.1
20260901210906 28 204 0.0 4.8 0.00 0.00 0.00 68 1013.2
20260901210720 28 204 0.0 4.8 0.00 0.00 0.00 65 1013.2
20260901210506 28 203 0.0 4.8 0.00 0.00 0.00 66 1013.2
20260901210306 28 204 0.0 4.8 0.00 0.00 0.00 66 1013.2
20260901210207 28 206 0.0 4.8 0.00 0.00 0.00 66 1013.2
20260901210106 28 206 0.0 4.8 0.00 0.00 0.00 67 1013.2
20260901205906 28 204 0.0 4.8 0.00 0.00 0.00 66 1013.3
20260901205707 28 204 0.0 4.8 0.00 0.00 0.00 66 1013.2
20260901205533 27 204 0.0 4.8 0.00 0.00 0.00 66 1013.2
20260901205506 28 204 0.0 4.8 0.00 0.00 0.00 65 1013.2
20260901205452 27 203 0.0 3.2 0.00 0.00 0.00 66 1013.1
20260901205106 27 206 0.0 1.6 0.00 0.00 0.00 69 1013.1
20260901205008 27 203 0.0 0.0 0.00 0.00 0.00 69 1013.2
20260901204708 27 203 0.0 0.0 0.00 0.00 0.00 69 1013.1
20260901204512 27 203 0.0 0.0 0.00 0.00 0.00 69 1013.2
20260901204443 28 204 0.0 0.0 0.00 0.00 0.00 69 1013.1
20260901204431 27 203 0.0 0.0 0.00 0.00 0.00 69 1013.0
20260901204106 28 204 0.0 0.0 0.00 0.00 0.00 69 1013.0
20260901204008 28 204 0.0 0.0 0.00 0.00 0.00 69 1013.1
20260901203707 28 204 0.0 0.0 0.00 0.00 0.00 70 1013.1
20260901203605 28 203 0.0 0.0 0.00 0.00 0.00 70 1013.1
20260901203458 28 204 0.0 3.2 0.00 0.00 0.00 70 1013.2
20260901203434 28 204 0.0 0.0 0.00 0.00 0.00 70 1013.2
20260901203106 28 204 0.0 3.2 0.00 0.00 0.00 69 1013.2
20260901202906 28 204 0.0 3.2 0.00 0.00 0.00 67 1013.4
20260901202708 28 204 0.0 4.8 0.00 0.00 0.00 68 1013.4
20260901202608 28 204 0.0 4.8 0.00 0.00 0.00 65 1013.7
20260901202513 28 204 0.0 4.8 0.00 0.00 0.00 65 1013.6
20260901202507 28 204 0.0 4.8 0.00 0.00 0.00 64 1013.4
20260901202435 28 204 0.0 4.8 0.00 0.00 0.00 64 1013.6
20260901201906 28 204 0.0 4.8 0.00 0.00 0.00 64 1013.8
20260901201708 28 204 0.0 4.8 0.00 0.00 0.00 65 1013.8
20260901201505 27 204 0.0 4.8 0.00 0.00 0.00 64 1013.8
20260901201306 27 206 0.0 4.8 0.00 0.00 0.00 66 1013.8
20260901201217 27 204 0.0 4.8 0.00 0.00 0.00 66 1013.7
20260901201206 27 206 0.0 4.8 0.00 0.00 0.00 66 1013.7
20260901200906 27 206 0.0 4.8 0.00 0.00 0.00 68 1013.7
20260901200707 28 206 0.0 0.0 0.00 0.00 0.00 71 1013.7
20260901200508 28 204 0.0 0.0 0.00 0.00 0.00 70 1013.6
20260901200405 27 203 0.0 0.0 0.00 0.00 0.00 70 1013.5
20260901200206 27 204 0.0 0.0 0.00 0.00 0.00 68 1013.5
20260901200107 27 206 0.0 0.0 0.00 0.00 0.00 68 1013.5
20260901195911 27 204 0.0 0.0 0.00 0.00 0.00 68 1013.5
20260901195808 27 204 0.0 0.0 0.00 0.00 0.00 68 1013.5
20260901195707 27 204 0.0 0.0 0.00 0.00 0.00 68 1013.5
20260901195506 27 203 0.0 0.0 0.00 0.00 0.00 70 1013.4
20260901195306 27 204 0.0 0.0 0.00 0.00 0.00 70 1013.4
20260901195206 28 203 0.0 1.6 0.00 0.00 0.00 70 1013.4
20260901195107 28 203 0.0 4.8 0.00 0.00 0.00 70 1013.4
20260901195005 28 206 0.0 4.8 0.00 0.00 0.00 69 1013.5
20260901194708 28 204 0.0 4.8 0.00 0.00 0.00 68 1013.5
20260901194506 28 204 0.0 4.8 0.00 0.00 0.00 68 1013.5
20260901194409 28 204 0.0 4.8 0.00 0.00 0.00 64 1013.5
20260901194206 28 204 0.0 4.8 0.00 0.00 0.00 63 1013.7
20260901194107 28 207 0.0 4.8 0.00 0.00 0.00 65 1013.7
20260901193908 28 206 0.0 3.2 0.00 0.00 0.00 66 1013.7
20260901193709 28 204 0.0 3.2 0.00 0.00 0.00 63 1013.9
20260901193606 28 204 0.0 3.2 0.00 0.00 0.00 63 1013.9
20260901193452 28 206 0.0 3.2 0.00 0.00 0.00 64 1013.8
20260901193430 28 204 0.0 3.2 0.00 0.00 0.00 64 1013.8
20260901193107 28 204 0.0 3.2 0.00 0.00 0.00 63 1013.8
20260901192907 28 206 0.0 3.2 0.00 0.00 0.00 65 1013.8
20260901192708 28 204 0.0 3.2 0.00 0.00 0.00 65 1013.8
20260901192607 28 206 0.0 4.8 0.00 0.00 0.00 64 1013.7
20260901192307 28 204 0.0 4.8 0.00 0.00 0.00 64 1013.6
20260901192217 28 206 0.0 4.8 0.00 0.00 0.00 63 1013.7
20260901192206 28 204 0.0 4.8 0.00 0.00 0.00 63 1013.7
20260901191906 28 206 0.0 4.8 0.00 0.00 0.00 63 1013.8
20260901191707 28 206 0.0 4.8 0.00 0.00 0.00 62 1014.0
20260901191507 28 203 0.0 6.4 0.00 0.00 0.00 63 1014.0
20260901191306 28 202 0.0 6.4 0.00 0.00 0.00 63 1014.0
20260901191217 28 202 0.0 6.4 0.00 0.00 0.00 62 1014.0
20260901191206 28 203 0.0 6.4 0.00 0.00 0.00 62 1014.0
20260901190906 28 203 0.0 6.4 0.00 0.00 0.00 61 1014.0
20260901190812 28 202 0.0 6.4 0.00 0.00 0.00 61 1014.0
20260901190707 28 202 0.0 6.4 0.00 0.00 0.00 61 1014.0
20260901190506 28 223 0.0 6.4 0.00 0.00 0.00 60 1013.9
20260901190306 28 223 0.0 6.4 0.00 0.00 0.00 59 1013.9
20260901190206 28 224 0.0 6.4 0.00 0.00 0.00 60 1013.9
20260901190106 28 227 0.0 6.4 0.00 0.00 0.00 59 1013.9
20260901185906 28 230 0.0 4.8 0.00 0.00 0.00 61 1014.1
20260901185816 28 228 0.0 4.8 0.00 0.00 0.00 60 1014.0
20260901185708 28 228 0.0 4.8 0.00 0.00 0.00 60 1014.0
20260901185605 28 241 0.0 4.8 0.00 0.00 0.00 59 1014.0
20260901185458 28 241 0.0 3.2 0.00 0.00 0.00 59 1013.8
20260901185438 28 240 0.0 3.2 0.00 0.00 0.00 58 1013.9
20260901185106 28 240 0.0 3.2 0.00 0.00 0.00 59 1013.8
20260901184907 29 243 0.0 3.2 0.00 0.00 0.00 62 1013.9
20260901184707 29 241 0.0 3.2 0.00 0.00 0.00 60 1014.0
20260901184606 29 241 0.0 3.2 0.00 0.00 0.00 57 1013.9
20260901184305 29 241 0.0 3.2 0.00 0.00 0.00 58 1013.9
20260901184216 29 243 0.0 3.2 0.00 0.00 0.00 59 1013.9
20260901184206 29 243 0.0 3.2 0.00 0.00 0.00 60 1013.9
20260901183906 30 241 0.0 1.6 0.00 0.00 0.00 57 1013.9
20260901183708 30 241 0.0 1.6 0.00 0.00 0.00 57 1013.7
20260901183507 30 243 0.0 1.6 0.00 0.00 0.00 59 1013.6
20260901183305 30 243 0.0 1.6 0.00 0.00 0.00 58 1013.4
20260901183220 30 241 0.0 1.6 0.00 0.00 0.00 58 1013.5
20260901183206 30 243 0.0 1.6 0.00 0.00 0.00 60 1013.5
20260901182906 30 240 0.0 3.2 0.00 0.00 0.00 54 1013.7
20260901182811 30 241 0.0 3.2 0.00 0.00 0.00 53 1013.7
20260901182707 30 241 0.0 3.2 0.00 0.00 0.00 53 1013.7
20260901182507 30 243 0.0 3.2 0.00 0.00 0.00 58 1013.7
20260901182307 30 243 0.0 4.8 0.00 0.00 0.00 58 1013.8
20260901182211 30 243 0.0 4.8 0.00 0.00 0.00 58 1013.8
20260901182054 30 243 0.0 4.8 0.00 0.00 0.00 58 1013.7
20260901181853 29 243 0.0 6.4 0.00 0.00 0.00 61 1013.8
20260901181658 29 241 0.0 6.4 0.00 0.00 0.00 56 1013.9
20260901181454 29 241 0.0 6.4 0.00 0.00 0.00 57 1014.0
20260901181252 29 243 0.0 6.4 0.00 0.00 0.00 57 1014.0
20260901181154 29 243 0.0 6.4 0.00 0.00 0.00 56 1014.0
20260901181052 29 241 0.0 4.8 0.00 0.00 0.00 60 1014.1
20260901180849 29 241 0.0 4.8 0.00 0.00 0.00 60 1014.1
20260901180800 29 238 0.0 0.0 0.00 0.00 0.00 62 1014.2
20260901180655 29 238 0.0 0.0 0.00 0.00 0.00 62 1014.2
20260901180619 -17 0.0 0.0 0.00 0.00 0.00
20260901180259 -17 0.0 0.0 0.00 0.00 0.00
20260901180004 -17 0.0 0.0 0.00 0.00 0.00
20260901175902 -17 0.0 0.0 0.00 0.00 0.00
20260901175804 -17 0.0 0.0 0.00 0.00 0.00
20260901175607 -17 0.0 0.0 0.00 0.00 0.00
20260901175544 -17 0.0 0.0 0.00 0.00 0.00 1014.4
20260901175232 -17 0.0 0.0 0.00 0.00 0.00 1014.4
20260901174931 -17 0.0 0.0 0.00 0.00 0.00 1014.4
20260901174839 28 278 0.0 4.8 0.00 0.00 0.00 60 1014.4
20260901174830 28 278 0.0 1.6 0.00 0.00 0.00 60 1014.4
20260901174611 28 278 0.0 4.8 0.00 0.00 0.00 60 1014.4
20260901174554 28 278 0.0 4.8 0.00 0.00 0.00 60 1014.4
20260901174303 28 278 0.0 4.8 0.00 0.00 0.00 60 1014.4
20260901174103 28 278 0.0 4.8 0.00 0.00 0.00 60 1014.5
20260901173831 28 278 0.0 4.8 0.00 0.00 0.00 60 1014.5
20260901173803 28 278 0.0 3.2 0.00 0.00 0.00 59 1014.5
20260901173632 28 278 0.0 1.6 0.00 0.00 0.00 59 1014.5
20260901173431 28 278 0.0 1.6 0.00 0.00 0.00 58 1014.4
20260901173303 28 279 0.0 1.6 0.00 0.00 0.00 58 1014.6
20260901173231 28 281 0.0 1.6 0.00 0.00 0.00 58 1014.6
20260901173030 28 279 0.0 1.6 0.00 0.00 0.00 61 1014.5
20260901172932 28 279 0.0 1.6 0.00 0.00 0.00 55 1014.6
20260901172802 28 279 0.0 1.6 0.00 0.00 0.00 55 1014.5
20260901172630 28 279 0.0 4.8 0.00 0.00 0.00 57 1014.6
20260901172530 28 278 0.0 4.8 0.00 0.00 0.00 64 1014.6
20260901172306 28 278 0.0 4.8 0.00 0.00 0.00 64 1014.6
20260901172230 28 278 0.0 4.8 0.00 0.00 0.00 64 1014.6
20260901172110 28 278 0.0 4.8 0.00 0.00 0.00 58 1014.7
20260901172058 28 278 0.0 4.8 0.00 0.00 0.00 60 1014.6
20260901172020 28 279 0.0 4.8 0.00 0.00 0.00 58 1014.6
20260901171629 28 223 0.0 6.4 0.00 0.00 0.00 57 1014.7
20260901171526 28 221 0.0 6.4 0.00 0.00 0.00 60 1014.7
20260901171301 28 221 0.0 6.4 0.00 0.00 0.00 60 1014.7
20260901171229 28 221 0.0 6.4 0.00 0.00 0.00 62 1014.7
20260901171157 28 221 0.0 6.4 0.00 0.00 0.00 60 1014.7
20260901171106 28 221 0.0 6.4 0.00 0.00 0.00 59 1014.6
20260901171020 28 220 0.0 6.4 0.00 0.00 0.00 56 1014.6
20260901170627 28 223 0.0 6.4 0.00 0.00 0.00 56 1014.7
20260901170426 28 221 0.0 6.4 0.00 0.00 0.00 54 1014.7
20260901170302 28 240 0.0 4.8 0.00 0.00 0.00 55 1014.7
20260901170229 28 240 0.0 4.8 0.00 0.00 0.00 55 1014.7
20260901170133 28 240 0.0 4.8 0.00 0.00 0.00 55 1014.6
20260901170021 28 240 0.0 4.8 0.00 0.00 0.00 61 1014.6
20260901165952 28 240 0.0 4.8 0.00 0.00 0.00 62 1014.6
20260901165715 28 240 0.0 4.8 0.00 0.00 0.00 59 1014.6
20260901165416 28 238 0.0 4.8 0.00 0.00 0.00 59 1014.6
20260901165314 28 240 0.0 4.8 0.00 0.00 0.00 64 1014.6
20260901165230 28 240 0.0 4.8 0.00 0.00 0.00 64 1014.6
20260901165016 28 240 0.0 6.4 0.00 0.00 0.00 60 1014.7
20260901164905 28 238 0.0 6.4 0.00 0.00 0.00 63 1014.6
20260901164731 28 240 0.0 6.4 0.00 0.00 0.00 66 1014.6
20260901164605 28 240 0.0 6.4 0.00 0.00 0.00 62 1014.6
20260901164404 28 238 0.0 6.4 0.00 0.00 0.00 64 1014.8
20260901164229 27 238 0.0 6.4 0.00 0.00 0.00 65 1014.8
20260901164205 27 240 0.0 6.4 0.00 0.00 0.00 65 1014.8
20260901164005 28 241 0.0 4.8 0.00 0.00 0.00 63 1014.8
20260901163849 28 241 0.0 8.0 0.00 0.00 0.00 64 1014.8
20260901163728 28 240 0.0 8.0 0.00 0.00 0.00 62 1014.8
20260901163548 28 237 0.0 8.0 0.00 0.00 0.00 65 1014.8
20260901163446 27 240 0.0 8.0 0.00 0.00 0.00 65 1014.7
20260901163229 27 240 0.0 8.0 0.00 0.00 0.00 67 1014.7
20260901163147 27 240 0.0 8.0 0.00 0.00 0.00 66 1014.8
20260901162946 27 240 0.0 8.0 0.00 0.00 0.00 64 1014.8
20260901162747 27 230 0.0 8.0 0.00 0.00 0.00 65 1014.8
20260901162728 27 234 0.0 8.0 0.00 0.00 0.00 64 1014.8
20260901162546 27 237 0.0 8.0 0.00 0.00 0.00 66 1015.0
20260901162444 27 237 0.0 8.0 0.00 0.00 0.00 67 1014.7
20260901162229 27 237 0.0 8.0 0.00 0.00 0.00 67 1014.8
20260901162142 27 237 0.0 8.0 0.00 0.00 0.00 69 1014.7
20260901162039 26 190 0.0 6.4 0.00 0.00 0.00 68 1014.7
20260901161730 26 190 0.0 6.4 0.00 0.00 0.00 68 1014.7
20260901161535 26 192 0.0 6.4 0.00 0.00 0.00 67 1014.7
20260901161333 26 190 0.0 6.4 0.00 0.00 0.00 69 1014.8
20260901161239 26 227 0.0 6.4 0.00 0.00 0.00 72 1014.8
20260901161229 26 189 0.0 6.4 0.00 0.00 0.00 72 1014.7
20260901160930 26 227 0.0 6.4 0.00 0.00 0.00 70 1014.8
20260901160730 26 209 0.0 6.4 0.00 0.00 0.00 71 1014.8
20260901160528 26 210 0.0 6.4 0.00 0.00 0.00 71 1014.8
20260901160328 26 221 0.0 6.4 0.00 0.00 0.00 71 1014.7
20260901160240 26 221 0.0 6.4 0.00 0.00 0.00 71 1014.8
20260901160229 26 220 0.0 6.4 0.00 0.00 0.00 71 1014.7
20260901155927 26 224 0.0 6.4 0.00 0.00 0.00 72 1014.7
20260901155836 26 227 0.0 6.4 0.00 0.00 0.00 71 1014.6
20260901155732 26 227 0.0 6.4 0.00 0.00 0.00 71 1014.6
20260901155532 26 227 0.0 4.8 0.00 0.00 0.00 71 1014.6
20260901155523 26 227 0.0 4.8 0.00 0.00 0.00 76 1014.6
20260901155455 26 227 0.0 4.8 0.00 0.00 0.00 72 1014.6
20260901155129 26 227 0.0 4.8 0.00 0.00 0.00 73 1014.7
20260901154929 26 226 0.0 4.8 0.00 0.00 0.00 73 1014.8
20260901154834 26 227 0.0 4.8 0.00 0.00 0.00 73 1014.7
20260901154731 26 227 0.0 4.8 0.00 0.00 0.00 73 1014.7
20260901154557 26 226 0.0 3.2 0.00 0.00 0.00 75 1014.6
20260901154532 26 226 0.0 3.2 0.00 0.00 0.00 74 1014.7
20260901154523 26 227 0.0 3.2 0.00 0.00 0.00 75 1014.6
20260901154130 26 226 0.0 3.2 0.00 0.00 0.00 73 1014.5
20260901153929 26 227 0.0 3.2 0.00 0.00 0.00 73 1014.5
20260901153731 26 227 0.0 3.2 0.00 0.00 0.00 75 1014.5
20260901153532 26 227 0.0 3.2 0.00 0.00 0.00 76 1014.5
20260901153522 25 227 0.0 4.8 0.00 0.00 0.00 73 1014.6
20260901153456 25 227 0.0 4.8 0.00 0.00 0.00 74 1014.6
20260901153129 25 228 0.0 4.8 0.00 0.00 0.00 74 1014.5
20260901153032 25 227 0.0 4.8 0.00 0.00 0.00 72 1014.6
20260901152744 25 227 0.0 4.8 0.00 0.00 0.00 77 1014.6
20260901152529 25 227 0.0 6.4 0.00 0.00 0.00 74 1014.7
20260901152329 25 227 0.0 6.4 0.00 0.00 0.00 74 1014.7
20260901152239 25 227 0.0 6.4 0.00 0.00 0.00 75 1014.7
20260901152229 25 228 0.0 6.4 0.00 0.00 0.00 75 1014.7
20260901151929 25 227 0.0 6.4 0.00 0.00 0.00 74 1014.7
20260901151743 25 227 0.0 6.4 0.00 0.00 0.00 76 1014.7
20260901151632 25 227 0.0 4.8 0.00 0.00 0.00 74 1014.7
20260901151328 25 227 0.0 4.8 0.00 0.00 0.00 76 1014.8
20260901151230 25 228 0.0 4.8 0.00 0.00 0.00 77 1014.8
20260901151131 25 228 0.0 4.8 0.00 0.00 0.00 76 1014.8
20260901150931 25 228 0.0 4.8 0.00 0.00 0.00 76 1014.6
20260901150835 25 227 0.0 3.2 0.00 0.00 0.00 78 1014.7
20260901150730 25 227 0.0 3.2 0.00 0.00 0.00 78 1014.7
20260901150530 25 228 0.0 3.2 0.00 0.00 0.00 78 1014.7
20260901150329 24 226 0.0 0.0 0.00 0.00 0.00 77 1014.8
20260901150240 24 227 0.0 0.0 0.00 0.00 0.00 79 1014.7
20260901150229 24 227 0.0 0.0 0.00 0.00 0.00 78 1014.8
20260901145928 24 227 0.0 0.0 0.00 0.00 0.00 79 1014.8
20260901145731 24 227 0.0 0.0 0.00 0.00 0.00 78 1014.8
20260901145531 24 230 0.0 0.0 0.00 0.00 0.00 78 1015.0
20260901145329 24 228 0.0 0.0 0.00 0.00 0.00 79 1015.0
20260901145229 23 228 0.0 0.0 0.00 0.00 0.00 80 1014.8
20260901145129 23 230 0.0 0.0 0.00 0.00 0.00 80 1015.1
20260901144928 23 228 0.0 0.0 0.00 0.00 0.00 79 1015.0
20260901144730 23 231 0.0 0.0 0.00 0.00 0.00 79 1015.0
20260901144629 23 228 0.0 0.0 0.00 0.00 0.00 82 1015.0
20260901144427 23 230 0.0 0.0 0.00 0.00 0.00 81 1015.1
20260901144228 23 228 0.0 0.0 0.00 0.00 0.00 81 1015.0
20260901144128 23 228 0.0 0.0 0.00 0.00 0.00 81 1015.1
20260901143929 23 230 0.0 0.0 0.00 0.00 0.00 83 1015.1
20260901143731 23 228 0.0 0.0 0.00 0.00 0.00 84 1015.0
20260901143530 23 228 0.0 0.0 0.00 0.00 0.00 84 1015.0
20260901143331 23 228 0.0 0.0 0.00 0.00 0.00 84 1015.0
20260901143238 22 230 0.0 0.0 0.00 0.00 0.00 85 1014.8
20260901143229 23 230 0.0 0.0 0.00 0.00 0.00 84 1014.8
20260901143031 22 228 0.0 0.0 0.00 0.00 0.00 86 1015.0
20260901142730 22 230 0.0 0.0 0.00 0.00 0.00 86 1015.0
20260901142530 22 228 0.0 0.0 0.00 0.00 0.00 87 1015.0
20260901142329 22 230 0.0 0.0 0.00 0.00 0.00 87 1015.0
20260901142230 22 228 0.0 0.0 0.00 0.00 0.00 88 1015.0
20260901142131 22 230 0.0 0.0 0.00 0.00 0.00 88 1015.1
20260901141929 22 231 0.0 0.0 0.00 0.00 0.00 89 1015.1
20260901141837 22 230 0.0 0.0 0.00 0.00 0.00 90 1015.0
20260901141731 22 230 0.0 0.0 0.00 0.00 0.00 90 1015.0
20260901141628 21 237 0.0 0.0 0.00 0.00 0.00 90 1015.0
20260901141329 21 192 0.0 0.0 0.00 0.00 0.00 91 1015.1
20260901141239 21 193 0.0 0.0 0.00 0.00 0.00 91 1015.1
20260901141230 21 190 0.0 0.0 0.00 0.00 0.00 91 1015.1
20260901140929 21 190 0.0 0.0 0.00 0.00 0.00 92 1015.2
20260901140838 21 203 0.0 0.0 0.00 0.00 0.00 92 1015.2
20260901140731 21 203 0.0 0.0 0.00 0.00 0.00 92 1015.2
20260901140528 21 203 0.0 0.0 0.00 0.00 0.00 93 1015.2
20260901140329 21 216 0.0 0.0 0.00 0.00 0.00 94 1015.2
20260901140229 21 216 0.0 0.0 0.00 0.00 0.00 94 1015.2
20260901140130 21 214 0.0 0.0 0.00 0.00 0.00 94 1015.2
20260901135930 21 214 0.0 0.0 0.00 0.00 0.00 95 1015.2
20260901135836 20 216 0.0 0.0 0.00 0.00 0.00 95 1015.3
20260901135731 20 216 0.0 0.0 0.00 0.00 0.00 95 1015.3
20260901135556 20 216 0.0 0.0 0.00 0.00 0.00 96 1015.3
20260901135529 20 214 0.0 0.0 0.00 0.00 0.00 95 1015.3
20260901135516 20 216 0.0 0.0 0.00 0.00 0.00 96 1015.3
20260901135130 20 216 0.0 0.0 0.00 0.00 0.00 97 1015.2
20260901134930 20 216 0.0 0.0 0.00 0.00 0.00 97 1015.4
20260901134731 20 214 0.0 0.0 0.00 0.00 0.00 97 1015.3
20260901134601 20 216 0.0 0.0 0.00 0.00 0.00 97 1015.3
20260901134529 20 214 0.0 0.0 0.00 0.00 0.00 97 1015.3
20260901134520 20 214 0.0 0.0 0.00 0.00 0.00 97 1015.4
20260901134130 20 216 0.0 0.0 0.00 0.00 0.00 97 1015.3
20260901134030 20 214 0.0 0.0 0.00 0.00 0.00 97 1015.3
20260901133730 19 216 0.0 0.0 0.00 0.00 0.00 97 1015.3
20260901133534 19 216 0.0 0.0 0.00 0.00 0.00 97 1015.4
20260901133528 19 214 0.0 0.0 0.00 0.00 0.00 97 1015.4
20260901133501 19 216 0.0 0.0 0.00 0.00 0.00 97 1015.4
20260901133129 19 216 0.0 0.0 0.00 0.00 0.00 97 1015.4
20260901132929 19 216 0.0 1.6 0.00 0.00 0.00 97 1015.4
20260901132731 19 216 0.0 1.6 0.00 0.00 0.00 97 1015.4
20260901132529 19 214 0.0 1.6 0.00 0.00 0.00 98 1015.4
20260901132428 19 216 0.0 1.6 0.00 0.00 0.00 98 1015.4
20260901132228 18 216 0.0 1.6 0.00 0.00 0.00 97 1015.3
20260901132128 18 216 0.0 1.6 0.00 0.00 0.00 97 1015.4
20260901132030 18 214 0.0 0.0 0.00 0.00 0.00 97 1015.3
20260901131731 18 214 0.0 0.0 0.00 0.00 0.00 97 1015.3
20260901131529 18 220 0.0 0.0 0.00 0.00 0.00 98 1015.2
20260901131331 18 220 0.0 0.0 0.00 0.00 0.00 97 1015.2
20260901131230 18 220 0.0 0.0 0.00 0.00 0.00 97 1015.2
20260901131129 18 220 0.0 0.0 0.00 0.00 0.00 97 1015.2
20260901131036 18 220 0.0 0.0 0.00 0.00 0.00 97 1015.2
20260901130730 18 219 0.0 0.0 0.00 0.00 0.00 97 1015.2
20260901130628 18 220 0.0 0.0 0.00 0.00 0.00 97 1015.1
20260901130330 18 219 0.0 0.0 0.00 0.00 0.00 98 1015.1
20260901130243 18 219 0.0 0.0 0.00 0.00 0.00 97 1015.1
20260901130129 18 220 0.0 0.0 0.00 0.00 0.00 97 1015.1
20260901125931 18 219 0.0 0.0 0.00 0.00 0.00 97 1015.0
20260901125733 18 219 0.0 0.0 0.00 0.00 0.00 98 1015.0
20260901125612 -17 0.0 0.0 0.00 0.00 0.00
20260901125507 -17 0.0 0.0 0.00 0.00 0.00
20260901125309 -17 0.0 0.0 0.00 0.00 0.00
20260901125035 -17 0.0 0.0 0.00 0.00 0.00
20260901124934 -17 0.0 0.0 0.00 0.00 0.00
20260901124848 -17 0.0 0.0 0.00 0.00 0.00
20260901124638 -17 0.0 0.0 0.00 0.00 0.00
20260901124548 -17 0.0 0.0 0.00 0.00 0.00 1014.8
20260901124444 -17 0.0 0.0 0.00 0.00 0.00 1014.8
20260901124207 -17 0.0 0.0 0.00 0.00 0.00 1014.8
20260901124110 -17 0.0 0.0 0.00 0.00 0.00 1014.8
20260901123905 17 219 0.0 0.0 0.00 0.00 0.00 97 1014.8
20260901123808 17 219 0.0 0.0 0.00 0.00 0.00 97 1014.8
20260901123617 17 219 0.0 0.0 0.00 0.00 0.00 97 1014.7
20260901123610 17 219 0.0 0.0 0.00 0.00 0.00 97 1014.8
20260901123550 17 219 0.0 0.0 0.00 0.00 0.00 97 1014.8
20260901123158 17 220 0.0 0.0 0.00 0.00 0.00 97 1014.7
20260901123135 17 219 0.0 0.0 0.00 0.00 0.00 97 1014.7
20260901123115 17 220 0.0 0.0 0.00 0.00 0.00 97 1014.7
20260901122737 17 220 0.0 0.0 0.00 0.00 0.00 97 1014.7
20260901122634 16 220 0.0 0.0 0.00 0.00 0.00 97 1014.7
20260901122332 16 220 0.0 0.0 0.00 0.00 0.00 97 1014.7
20260901122135 16 220 0.0 0.0 0.00 0.00 0.00 97 1014.7
20260901122124 16 219 0.0 0.0 0.00 0.00 0.00 97 1014.7
20260901122101 16 220 0.0 0.0 0.00 0.00 0.00 97 1014.7
20260901121736 16 220 0.0 0.0 0.00 0.00 0.00 97 1014.7
20260901121635 16 220 0.0 0.0 0.00 0.00 0.00 97 1014.6
20260901121330 16 220 0.0 0.0 0.00 0.00 0.00 97 1014.6
20260901121236 16 219 0.0 0.0 0.00 0.00 0.00 97 1014.5
20260901121056 16 220 0.0 0.0 0.00 0.00 0.00 97 1014.5
20260901121036 16 220 0.0 0.0 0.00 0.00 0.00 97 1014.5
20260901120736 16 219 0.0 0.0 0.00 0.00 0.00 97 1014.5
20260901120634 16 220 0.0 0.0 0.00 0.00 0.00 97 1014.6
20260901120334 16 220 0.0 0.0 0.00 0.00 0.00 97 1014.6
20260901120301 16 219 0.0 0.0 0.00 0.00 0.00 97 1014.5
20260901120139 16 219 0.0 0.0 0.00 0.00 0.00 97 1014.4
20260901120135 16 221 0.0 0.0 0.00 0.00 0.00 97 1014.6
20260901120052 16 219 0.0 0.0 0.00 0.00 0.00 97 1014.5
20260901115737 16 220 0.0 0.0 0.00 0.00 0.00 97 1014.5
20260901115534 16 219 0.0 0.0 0.00 0.00 0.00 97 1014.4
20260901115336 16 219 0.0 0.0 0.00 0.00 0.00 97 1014.5
20260901115306 16 220 0.0 0.0 0.00 0.00 0.00 97 1014.4
20260901115235 16 220 0.0 0.0 0.00 0.00 0.00 97 1014.4
20260901114939 16 219 0.0 0.0 0.00 0.00 0.00 97 1014.4
20260901114800 16 219 0.0 0.0 0.00 0.00 0.00 97 1014.3
20260901114731 16 220 0.0 0.0 0.00 0.00 0.00 97 1014.3
20260901114644 16 220 0.0 0.0 0.00 0.00 0.00 97 1014.3
20260901114521 16 220 0.0 0.0 0.00 0.00 0.00 97 1014.3
20260901114106 16 220 0.0 0.0 0.00 0.00 0.00 97 1014.2
20260901113906 16 217 0.0 0.0 0.00 0.00 0.00 97 1014.3
20260901113807 16 220 0.0 0.0 0.00 0.00 0.00 97 1014.2
20260901113754 16 219 0.0 0.0 0.00 0.00 0.00 97 1014.2
20260901113540 16 219 0.0 0.0 0.00 0.00 0.00 97 1014.1
20260901113528 16 220 0.0 0.0 0.00 0.00 0.00 97 1014.1